When you browse on this site, cookies collect data to enhance your experience and personalize the content and advertising you see.
Visit our Privacy Policy to learn more. By continuing to use the site, you agree to this use of cookies and data.
  • In United Kingdom
  • List of Countries
  • For 7 days
  • Water Temperature
  • Weather Map
  • Weather Widgets
  • user-avatar
    Login

    Hourly Weather La Paz

    Today, 26 January, Sunday

    Time Temperature Precipitation Wind Pressure Humidity
    00:00 +7°C° 0 mm 2 mps 474 mmHg 86%
    01:00 +6°C° 0 mm 2 mps 473 mmHg 86%
    02:00 +7°C° 0 mm 1 mps 473 mmHg 86%
    03:00 +6°C° 0 mm 1 mps 473 mmHg 86%
    04:00 +6°C° 0 mm 1 mps 472 mmHg 86%
    05:00 +7°C° 0 mm 1 mps 474 mmHg 81%
    06:00 +8°C° 0 mm 1 mps 475 mmHg 76%
    07:00 +9°C° 0 mm 1 mps 476 mmHg 70%
    08:00 +11°C° 0 mm 1 mps 477 mmHg 63%
    09:00 +13°C° 0 mm 1 mps 478 mmHg 56%
    10:00 +15°C° 0 mm 1 mps 479 mmHg 49%
    11:00 +15°C° 0.3 mm 2 mps 478 mmHg 51%
    12:00 +15°C° 0.3 mm 2 mps 478 mmHg 53%
    13:00 +15°C° 0.3 mm 2 mps 477 mmHg 55%
    14:00 +14°C° 0.4 mm 3 mps 477 mmHg 56%
    15:00 +14°C° 0.4 mm 3 mps 476 mmHg 58%
    16:00 +14°C° 0.4 mm 3 mps 476 mmHg 60%
    17:00 +12°C° 0.1 mm 3 mps 475 mmHg 67%
    18:00 +11°C° 0.1 mm 3 mps 475 mmHg 74%
    19:00 +10°C° 0.1 mm 3 mps 474 mmHg 81%
    20:00 +9°C° 0 mm 2 mps 474 mmHg 81%
    21:00 +8°C° 0 mm 2 mps 474 mmHg 81%
    22:00 +8°C° 0 mm 2 mps 474 mmHg 81%
    23:00 +8°C° 0 mm 1 mps 474 mmHg 80%

    Tomorrow, 27 January, Monday

    Time Temperature Precipitation Wind Pressure Humidity
    00:00 +8°C° 0 mm 1 mps 473 mmHg 78%
    01:00 +8°C° 0 mm 1 mps 473 mmHg 77%
    02:00 +7°C° 0 mm 1 mps 473 mmHg 78%
    03:00 +7°C° 0 mm 1 mps 472 mmHg 79%
    04:00 +7°C° 0 mm 1 mps 472 mmHg 80%
    05:00 +8°C° 0 mm 1 mps 473 mmHg 78%
    06:00 +9°C° 0 mm 1 mps 474 mmHg 75%
    07:00 +9°C° 0 mm 2 mps 475 mmHg 73%
    08:00 +10°C° 0 mm 2 mps 476 mmHg 67%
    09:00 +13°C° 0 mm 2 mps 477 mmHg 61%
    10:00 +14°C° 0 mm 2 mps 478 mmHg 54%
    11:00 +15°C° 0.3 mm 2 mps 478 mmHg 54%
    12:00 +16°C° 0.3 mm 3 mps 478 mmHg 53%
    13:00 +16°C° 0.3 mm 3 mps 478 mmHg 52%
    14:00 +14°C° 0.4 mm 4 mps 477 mmHg 56%
    15:00 +14°C° 0.4 mm 4 mps 476 mmHg 61%
    16:00 +13°C° 0.4 mm 5 mps 476 mmHg 65%
    17:00 +11°C° 0.4 mm 4 mps 475 mmHg 70%
    18:00 +10°C° 0.4 mm 3 mps 475 mmHg 75%
    19:00 +8°C° 0.4 mm 2 mps 474 mmHg 80%
    20:00 +8°C° 0.2 mm 2 mps 475 mmHg 81%
    21:00 +8°C° 0.2 mm 2 mps 475 mmHg 81%
    22:00 +9°C° 0.2 mm 1 mps 475 mmHg 81%
    23:00 +9°C° 0 mm 1 mps 475 mmHg 81%

    Day after tomorrow, 28 January, Tuesday

    Time Temperature Precipitation Wind Pressure Humidity
    00:00 +9°C° 0 mm 1 mps 475 mmHg 81%
    01:00 +9°C° 0 mm 1 mps 474 mmHg 80%
    02:00 +7°C° 0 mm 0 mps 474 mmHg 82%
    03:00 +7°C° 0 mm 0 mps 474 mmHg 84%
    04:00 +7°C° 0 mm 0 mps 473 mmHg 85%
    05:00 +7°C° 0.1 mm 0 mps 474 mmHg 82%
    06:00 +9°C° 0.1 mm 1 mps 475 mmHg 79%
    07:00 +10°C° 0.1 mm 1 mps 475 mmHg 75%
    08:00 +11°C° 0.4 mm 1 mps 476 mmHg 73%
    09:00 +12°C° 0.4 mm 1 mps 476 mmHg 71%
    10:00 +13°C° 0.4 mm 2 mps 477 mmHg 68%
    11:00 +12°C° 0.8 mm 2 mps 476 mmHg 69%
    12:00 +11°C° 0.8 mm 3 mps 475 mmHg 71%
    13:00 +11°C° 0.8 mm 3 mps 474 mmHg 72%
    14:00 +11°C° 1 mm 3 mps 474 mmHg 73%
    15:00 +11°C° 1 mm 4 mps 473 mmHg 75%
    16:00 +11°C° 1 mm 4 mps 473 mmHg 76%
    17:00 +10°C° 0.5 mm 4 mps 473 mmHg 78%
    18:00 +9°C° 0.5 mm 3 mps 473 mmHg 80%
    19:00 +9°C° 0.5 mm 3 mps 473 mmHg 82%
    20:00 +8°C° 0.4 mm 3 mps 473 mmHg 85%
    21:00 +7°C° 0.4 mm 3 mps 473 mmHg 87%
    22:00 +5°C° 0.4 mm 4 mps 473 mmHg 90%
    23:00 +5°C° 0.2 mm 3 mps 473 mmHg 88%

    29 January, Wednesday

    Time Temperature Precipitation Wind Pressure Humidity
    00:00 +6°C° 0.2 mm 2 mps 472 mmHg 86%
    01:00 +7°C° 0.2 mm 1 mps 472 mmHg 85%
    02:00 +7°C° 0 mm 1 mps 472 mmHg 85%
    03:00 +7°C° 0 mm 1 mps 471 mmHg 86%
    04:00 +7°C° 0 mm 1 mps 471 mmHg 86%
    05:00 +7°C° 0 mm 1 mps 472 mmHg 82%
    06:00 +8°C° 0 mm 1 mps 473 mmHg 78%
    07:00 +8°C° 0 mm 0 mps 474 mmHg 74%
    08:00 +10°C° 0.1 mm 1 mps 474 mmHg 70%
    09:00 +11°C° 0.1 mm 1 mps 475 mmHg 67%
    10:00 +12°C° 0.1 mm 1 mps 475 mmHg 64%
    11:00 +13°C° 0.4 mm 1 mps 474 mmHg 65%
    12:00 +13°C° 0.4 mm 2 mps 474 mmHg 67%
    13:00 +13°C° 0.4 mm 2 mps 473 mmHg 68%
    14:00 +13°C° 1.2 mm 2 mps 473 mmHg 70%
    15:00 +11°C° 1.2 mm 3 mps 473 mmHg 71%
    16:00 +11°C° 1.2 mm 3 mps 472 mmHg 73%
    17:00 +10°C° 0.9 mm 3 mps 472 mmHg 77%
    18:00 +9°C° 0.9 mm 2 mps 472 mmHg 81%
    19:00 +8°C° 0.9 mm 2 mps 472 mmHg 85%
    20:00 +8°C° 1.5 mm 2 mps 472 mmHg 86%
    21:00 +7°C° 1.5 mm 2 mps 472 mmHg 86%
    22:00 +7°C° 1.5 mm 2 mps 473 mmHg 87%
    23:00 +7°C° 1.3 mm 2 mps 472 mmHg 88%

    30 January, Thursday

    Time Temperature Precipitation Wind Pressure Humidity
    00:00 +6°C° 1.3 mm 2 mps 472 mmHg 89%
    01:00 +7°C° 1.3 mm 1 mps 471 mmHg 91%
    02:00 +7°C° 0.9 mm 1 mps 471 mmHg 91%
    03:00 +7°C° 0.9 mm 1 mps 471 mmHg 92%
    04:00 +6°C° 0.9 mm 1 mps 471 mmHg 93%
    05:00 +7°C° 0.2 mm 1 mps 472 mmHg 91%
    06:00 +7°C° 0.2 mm 1 mps 472 mmHg 90%
    07:00 +7°C° 0.2 mm 1 mps 473 mmHg 88%
    08:00 +8°C° 0.1 mm 1 mps 473 mmHg 84%
    09:00 +9°C° 0.1 mm 1 mps 474 mmHg 79%
    10:00 +10°C° 0.1 mm 1 mps 475 mmHg 75%
    11:00 +11°C° 0.3 mm 1 mps 475 mmHg 74%
    12:00 +12°C° 0.3 mm 2 mps 474 mmHg 72%
    13:00 +11°C° 0.3 mm 3 mps 474 mmHg 71%
    14:00 +11°C° 0.8 mm 3 mps 474 mmHg 71%
    15:00 +11°C° 0.8 mm 3 mps 473 mmHg 72%
    16:00 +12°C° 0.8 mm 2 mps 473 mmHg 72%
    17:00 +10°C° 0.5 mm 3 mps 473 mmHg 78%
    18:00 +9°C° 0.5 mm 3 mps 473 mmHg 83%
    19:00 +8°C° 0.5 mm 3 mps 473 mmHg 89%
    20:00 +8°C° 0.1 mm 3 mps 473 mmHg 90%
    21:00 +7°C° 0.1 mm 2 mps 473 mmHg 91%
    22:00 +7°C° 0.1 mm 2 mps 474 mmHg 92%
    23:00 +8°C° 0.2 mm 1 mps 473 mmHg 92%

    31 January, Friday

    Time Temperature Precipitation Wind Pressure Humidity
    00:00 +8°C° 0.2 mm 1 mps 473 mmHg 92%
    01:00 +8°C° 0.2 mm 1 mps 473 mmHg 92%
    02:00 +8°C° 0.2 mm 1 mps 473 mmHg 92%
    03:00 +7°C° 0.2 mm 1 mps 472 mmHg 93%
    04:00 +7°C° 0.2 mm 1 mps 472 mmHg 94%
    05:00 +7°C° 0.5 mm 1 mps 473 mmHg 92%
    06:00 +8°C° 0.5 mm 1 mps 473 mmHg 91%
    07:00 +8°C° 0.5 mm 1 mps 474 mmHg 90%
    08:00 +8°C° 0.6 mm 1 mps 474 mmHg 88%
    09:00 +9°C° 0.6 mm 1 mps 474 mmHg 86%
    10:00 +9°C° 0.6 mm 1 mps 474 mmHg 85%
    11:00 +9°C° 0.3 mm 2 mps 474 mmHg 82%
    12:00 +10°C° 0.3 mm 2 mps 475 mmHg 78%
    13:00 +12°C° 0.3 mm 2 mps 475 mmHg 75%
    14:00 +10°C° 0.5 mm 3 mps 474 mmHg 77%
    15:00 +10°C° 0.5 mm 3 mps 474 mmHg 78%
    16:00 +10°C° 0.5 mm 4 mps 473 mmHg 80%
    17:00 +9°C° 0.1 mm 3 mps 473 mmHg 82%
    18:00 +8°C° 0.1 mm 3 mps 473 mmHg 85%
    19:00 +7°C° 0.1 mm 3 mps 473 mmHg 88%
    20:00 +7°C° 0 mm 2 mps 473 mmHg 89%
    21:00 +7°C° 0 mm 2 mps 474 mmHg 90%
    22:00 +7°C° 0 mm 2 mps 474 mmHg 91%
    23:00 +7°C° 0 mm 1 mps 474 mmHg 91%
    Show more